This demonstration page uses our WeatherBlox Daily Observations layout. Learn more.

Left ArrowRight Arrow

Hourly Observations for May 11, 2018

Temp ( °F °C ) Dew Point ( °F °C ) Humidity (%) Winds ( mph kmh ) Pressure ( in mb ) Visibility ( mi km ) Precip ( " mm )
12:15 am 00:15 Cloudy 57 13.7 47 8.5 71 71 NNE 37 59 29.77 1008 0.75 1.207005 0 0
12:35 am 00:35 Very Windy with Storms Likely 56 13.3 48 9 75 75 NNE 38 61 29.8 1009 10 16.0934 0 0
12:55 am 00:55 Cloudy with Nearby Thunderstorms 53 11.7 49 9.2 85 85 N 28 44 29.85 1011 10 16.0934 0 0
1:15 am 01:15 Mostly Cloudy 53 11.6 50 9.8 89 89 ENE 36 57 29.77 1008 10 16.0934 0 0
1:35 am 01:35 Partly Cloudy with Thunderstorms 54 12 51 10.3 89 89 NE 35 56 29.77 1008 10 16.0934 0 0
1:55 am 01:55 Windy with Storms Likely 55 13 51 10.7 86 86 NE 21 33 29.74 1007 10 16.0934 0 0
2:15 am 02:15 Windy with Storms Likely 55 12.8 53 11.7 93 93 ENE 22 35 29.71 1006 10 16.0934 0.01 0.254
2:35 am 02:35 Mostly Cloudy with Thunderstorms 55 13 54 12 94 94 ENE 24 39 29.74 1007 10 16.0934 0.01 0.254
2:55 am 02:55 Mostly Cloudy with Nearby Thunderstorms 54 12.3 53 11.8 97 97 ENE 24 39 29.74 1007 10 16.0934 0.01 0.254
3:15 am 03:15 Cloudy with Nearby Thunderstorms 54 12 53 11.5 97 97 E 23 37 29.74 1007 10 16.0934 0 0
3:35 am 03:35 Cloudy 54 12.1 53 11.6 97 97 E 25 41 29.71 1006 10 16.0934 0 0
3:55 am 03:55 Cloudy 54 12.2 52 11.3 94 94 E 21 33 29.71 1006 10 16.0934 0 0
4:15 am 04:15 Cloudy 53 11.9 52 11 94 94 ENE 23 37 29.74 1007 10 16.0934 0 0
4:35 am 04:35 Cloudy 52 11.1 51 10.5 96 96 E 22 35 29.74 1007 10 16.0934 0 0
4:55 am 04:55 Cloudy 51 10.8 50 10.2 96 96 E 21 33 29.71 1006 10 16.0934 0 0
5:15 am 05:15 Cloudy 52 10.9 50 10 94 94 E 21 33 29.71 1006 10 16.0934 0 0
5:35 am 05:35 Cloudy 51 10.8 49 9.6 92 92 E 22 35 29.71 1006 10 16.0934 0 0
5:55 am 05:55 Mostly Cloudy 52 11 48 9.1 88 88 ESE 21 33 29.68 1005 10 16.0934 0 0
6:15 am 06:15 Partly Cloudy 51 10.6 48 8.8 89 89 ESE 16 26 29.68 1005 10 16.0934 0 0
6:35 am 06:35 Partly Cloudy 51 10.5 48 9 91 91 E 13 20 29.71 1006 10 16.0934 0 0
6:55 am 06:55 Partly Cloudy 51 10.5 48 9 91 91 E 10 17 29.71 1006 10 16.0934 0 0
7:15 am 07:15 Sunny 51 10.3 49 9.2 93 93 NE 10 17 29.74 1007 10 16.0934 0 0
7:35 am 07:35 Sunny 50 10.1 49 9.3 95 95 NE 10 17 29.77 1008 10 16.0934 0 0
7:55 am 07:55 Partly Cloudy 50 10 49 9.5 97 97 NNE 10 17 29.8 1009 7 11.26538 0 0
8:15 am 08:15 Partly Cloudy 51 10.7 50 10.1 96 96 N 16 26 29.77 1008 10 16.0934 0 0
8:35 am 08:35 Cloudy 52 11 51 10.5 97 97 NNE 17 28 29.77 1008 7 11.26538 0 0
8:55 am 08:55 Cloudy 52 11.3 51 10.7 96 96 NNE 18 30 29.77 1008 7 11.26538 0 0
9:15 am 09:15 Cloudy with Mist and Fog 51 10.8 51 10.3 97 97 NNE 20 31 29.77 1008 5 8.0467 0 0
9:35 am 09:35 Cloudy with Mist and Fog 50 10 49 9.6 97 97 N 21 33 29.8 1009 4 6.43736 0 0
9:55 am 09:55 Cloudy with Mist and Fog 50 10 49 9.7 98 98 NNE 18 30 29.8 1009 5 8.0467 0 0
10:15 am 10:15 Cloudy with Mist and Fog 50 10 49 9.6 97 97 NNE 14 22 29.8 1009 5 8.0467 0 0
10:35 am 10:35 Cloudy with Mist and Fog 51 10.3 50 9.8 97 97 NNE 17 28 29.8 1009 5 8.0467 0 0
10:55 am 10:55 Cloudy with Mist and Fog 51 10.4 50 9.8 96 96 NNE 17 28 29.8 1009 5 8.0467 0 0
11:15 am 11:15 Cloudy with Mist and Fog 50 10.1 49 9.5 96 96 NNE 17 28 29.8 1009 5 8.0467 0 0
11:35 am 11:35 Cloudy 51 10.4 50 9.8 96 96 NNE 17 28 29.8 1009 7 11.26538 0 0
11:55 am 11:55 Cloudy 52 10.9 50 9.9 94 94 NNE 14 22 29.77 1008 7 11.26538 0 0
12:15 pm 12:15 Cloudy 53 11.4 50 10.2 92 92 NE 15 24 29.77 1008 10 16.0934 0 0
12:35 pm 12:35 Cloudy 53 11.5 50 10.1 91 91 NE 16 26 29.77 1008 10 16.0934 0 0
12:55 pm 12:55 Cloudy 53 11.8 51 10.4 91 91 NE 16 26 29.77 1008 10 16.0934 0 0
1:15 pm 13:15 Cloudy 54 12.4 51 10.8 90 90 NE 13 20 29.77 1008 10 16.0934 0 0
1:35 pm 13:35 Cloudy 55 13 52 11.1 88 88 NE 14 22 29.77 1008 10 16.0934 0 0
1:55 pm 13:55 Cloudy 57 13.7 53 11.6 87 87 NE 14 22 29.77 1008 10 16.0934 0 0
2:15 pm 14:15 Cloudy 58 14.6 54 12.1 85 85 NE 14 22 29.74 1007 10 16.0934 0 0
2:35 pm 14:35 Cloudy 58 14.7 54 12.3 86 86 ENE 13 20 29.74 1007 10 16.0934 0 0
2:55 pm 14:55 Cloudy 59 15.1 55 12.7 86 86 NE 10 17 29.74 1007 10 16.0934 0 0
3:15 pm 15:15 Cloudy 59 15 55 12.7 86 86 NE 10 17 29.74 1007 10 16.0934 0 0
3:35 pm 15:35 Cloudy with Mist and Fog 59 15.1 55 13 87 87 NE 9 15 29.74 1007 5 8.0467 0 0
3:55 pm 15:55 Cloudy 60 15.6 56 13.5 87 87 NNE 12 19 29.74 1007 10 16.0934 0 0
4:15 pm 16:15 Cloudy 60 15.8 56 13.5 86 86 NNE 13 20 29.74 1007 10 16.0934 0 0
4:35 pm 16:35 Cloudy 61 16.2 57 13.9 86 86 NNE 13 20 29.74 1007 10 16.0934 0 0
4:55 pm 16:55 Cloudy 63 17 57 13.9 82 82 NNE 18 30 29.74 1007 10 16.0934 0 0
5:15 pm 17:15 Cloudy 64 17.9 58 14.3 80 80 NNE 17 28 29.71 1006 10 16.0934 0 0
5:35 pm 17:35 Cloudy 63 17 57 14.1 83 83 NNE 18 30 29.74 1007 10 16.0934 0 0
5:55 pm 17:55 Cloudy 62 16.5 57 14.1 86 86 NE 17 28 29.74 1007 10 16.0934 0 0
6:15 pm 18:15 Cloudy 62 16.7 58 14.2 85 85 NE 17 28 29.74 1007 10 16.0934 0 0
6:35 pm 18:35 Cloudy 62 16.5 58 14.2 86 86 NNE 15 24 29.74 1007 10 16.0934 0 0
6:55 pm 18:55 Cloudy 61 16.2 58 14.4 89 89 NE 16 26 29.74 1007 10 16.0934 0 0
7:15 pm 19:15 Cloudy 59 15.1 56 13.5 90 90 NNE 18 30 29.74 1007 7 11.26538 0 0
7:35 pm 19:35 Cloudy with Mist and Fog 58 14.2 56 13.5 96 96 NE 18 30 29.74 1007 5 8.0467 0 0
7:55 pm 19:55 Cloudy 57 14.1 56 13.4 96 96 NE 18 30 29.74 1007 7 11.26538 0 0
8:15 pm 20:15 Cloudy with Mist and Fog 57 13.9 56 13.3 96 96 NE 17 28 29.74 1007 5 8.0467 0 0
8:35 pm 20:35 Cloudy with Mist and Fog 56 13.6 56 13.5 99 99 NE 18 30 29.8 1009 3 4.82802 0 0
8:55 pm 20:55 Cloudy with Mist and Fog 56 13.6 56 13.2 97 97 NE 18 30 29.8 1009 5 8.0467 0 0
9:15 pm 21:15 Cloudy with Mist and Fog 56 13.6 56 13.1 97 97 NE 18 30 29.8 1009 5 8.0467 0 0
9:35 pm 21:35 Cloudy with Mist and Fog 56 13.6 56 13.1 97 97 NE 17 28 29.8 1009 5 8.0467 0 0
9:55 pm 21:55 Cloudy with Mist and Fog 56 13.5 56 13.1 97 97 NE 17 28 29.8 1009 4 6.43736 0 0
10:15 pm 22:15 Cloudy with Mist and Fog 56 13.2 56 13.2 100 100 NE 16 26 29.8 1009 2.5 4.02335 0 0
10:35 pm 22:35 Cloudy with Mist and Fog 56 13.2 56 13.2 100 100 NE 17 28 29.83 1010 2 3.21868 0 0
10:55 pm 22:55 Cloudy with Mist and Fog 55 13 55 13 100 100 NE 15 24 29.83 1010 2 3.21868 0 0
11:15 pm 23:15 Cloudy with Mist and Fog 55 13 55 13 100 100 NE 17 28 29.85 1011 2 3.21868 0 0
11:35 pm 23:35 Cloudy with Mist and Fog 55 13 55 13 100 100 NE 18 30 29.83 1010 1.75 2.816345 0 0
11:55 pm 23:55 Cloudy with Mist and Fog 55 12.9 55 12.9 100 100 NE 18 30 29.83 1010 1.75 2.816345 0 0

Powered by AerisWeather